Torna al catalogo

STARLINK-2563

AttivoComunicazioniVLEO
NORAD 48410·PAYLOAD·🇺🇸 United States

Lanciato May 4, 2021 da Cape Canaveral Space Force Station

Loading…

Prossimi Passaggi (prossime 24 ore)

TLE

AggiornatoSource: CelesTrak SupGP

Epoca: Sep 15, 2026, 00:37 UTC

1 48410C 21038BK  26258.02618056  .00026758  00000+0  86041-3 0  2589
2 48410  53.1579 135.4497 0001257  79.8686  78.4194 15.31690264    12

Traccia STARLINK-2563 in tempo reale con AllMySat

Download on the App Store